Location: Newark
(34.6000°S, 58.3833°W)
Time: 15:58:42
(UTC+00:00)

Hubble Space Telescope - Visible Passes

Search period start: 19 October 2019 00:00
Search period end: 29 October 2019 00:00
Orbit: 536 x 540 km, 28.5° (Epoch: 19 October)

Date Brightness Start Highest point End Pass type
(mag) Time Alt. Az. Time Alt. Az. Time Alt. Az.
23 Oct 3.4 00:19:32 10° NW 00:19:46 11° NW 00:19:46 11° NW visible
24 Oct 2.7 00:08:44 10° NW 00:10:19 19° NNW 00:10:19 19° NNW visible
24 Oct 2.1 23:57:59 10° NW 00:00:44 27° NNW 00:00:44 27° NNW visible
25 Oct 1.7 23:47:16 10° WNW 23:51:01 32° N 23:51:02 32° N visible
26 Oct 1.6 23:36:36 10° WNW 23:40:23 34° N 23:41:15 31° NNE visible
27 Oct 1.6 23:25:57 10° WNW 23:29:46 35° N 23:31:22 25° NE visible
28 Oct 1.6 23:15:19 10° WNW 23:19:09 35° N 23:21:27 20° NE visible
